Regional Weather Roundup
Issued by NWS

Home | Current Version | Previous Version | Text Only | Print | Product List | Glossary On
Versions: 1 2 3 4 5 6 7 8 9 10 11 12 13 14 15 16 17 18 19 20 21 22 23 24 25 26 27 28 29 30 31 32 33 34 35 36 37 38 39 40 41 42 43 44 45 46 47 48 49 50
000
ASUS46 KSTO 231515
RWRCA

NORTHERN AND CENTRAL CA REGIONAL WEATHER ROUNDUP
NATIONAL WEATHER SERVICE SACRAMENTO CA
800 AM PDT MON OCT 23 2017

NOTE: FAIR INDICATES FEW OR NO CLOUDS BELOW 12,000 FEET WITH NO
SIGNIFICANT WEATHER AND/OR OBSTRUCTIONS TO VISIBILITY.

CAZ001-003-231600-
NORTHWEST AREA

CITY           SKY/WX    TMP DP  RH WIND       PRES   REMARKS
CRESCENT CITY  FOG       49  49 100 N6        30.42S VSB 1/4
UKIAH          CLEAR     49  46  90 CALM      30.30S
$$

CAZ006-505>513-231600-
BAY AREA

CITY           SKY/WX    TMP DP  RH WIND       PRES   REMARKS
SANTA ROSA     CLEAR     49  48  97 CALM      30.23R
SAN RAFAEL     N/A       53  MM  MM MISG
NAPA           CLEAR     47  47 100 CALM      30.24S
CONCORD        CLEAR     56  50  80 CALM      30.25R
OAKLAND CITY   N/A      MM  MM  MM MISG
OAKLAND        PTCLDY    54  51  90 CALM      30.24S
SAN FRAN CITY  N/A       60  MM  74 MISG
SAN FRAN ARPT  CLEAR     59  53  80 CALM      30.23S
LIVERMORE      CLEAR     69  50  50 E15       30.24S
HAYWARD        CLEAR     55  47  74 CALM      30.23S
REDWOOD CITY   N/A       57  MM  82 MISG
MOFFETT ARPT   CLEAR     65  51  60 CALM      30.24S
SAN JOSE ARPT  CLEAR     61  51  70 E5        30.23R
$$
CAZ034-037-514>518-231600-
CENTRAL COAST

CITY           SKY/WX    TMP DP  RH WIND       PRES   REMARKS
WATSONVILLE    CLEAR     54  53  97 CALM      30.22S
SALINAS        CLEAR     54  44  69 E13       30.22S
MONTEREY       CLEAR     58  43  57 E9        30.21R
SAN LUIS OBISP CLEAR     66  42  41 SW6       30.12S
SANTA MARIA    CLEAR     55  43  63 E3        30.12S
$$
CAZ015-016-231600-
NORTHERN SACRAMENTO VALLEY

CITY           SKY/WX    TMP DP  RH WIND       PRES   REMARKS
REDDING        CLEAR     70  49  47 N13G23    30.32S
RED BLUFF      CLEAR     67  50  54 NW12      30.31S
OROVILLE       CLEAR     57  51  80 CALM      30.27R
$$
CAZ016>018-231600-
SOUTHERN SACRAMENTO VALLEY

CITY           SKY/WX    TMP DP  RH WIND       PRES   REMARKS
AUBURN         CLEAR     59  43  55 E6        30.28S
BEALE AFB      CLEAR     51  48  88 CALM      30.24R
LINCOLN        FAIR      46  45  93 E3        30.25R
MARYSVILLE     CLEAR     50  48  93 CALM      30.26R
SAC INTL ARPT  CLEAR     49  48  97 N5        30.25R
MATHER AIRPORT CLEAR     50  46  87 CALM      30.25R
DOWNTOWN SAC   N/A       55  MM  MM MISG
SAC EXEC ARPT  CLEAR     50  49  96 CALM      30.26R
VACAVILLE      CLEAR     60  52  74 N6        30.26R
TRAVIS AFB     CLEAR     51  48  90 CALM      30.24R
$$
CAZ019>021-231600-
SAN JOAQUIN VALLEY

CITY           SKY/WX    TMP DP  RH WIND       PRES   REMARKS
STOCKTON       CLEAR     51  48  89 SE6       30.25R
MODESTO        CLEAR     49  47  93 E7        30.26R
MERCED         CLEAR     49  44  83 SE3       30.26R
LEMOORE        CLEAR     60  40  47 S3        30.28R
FRESNO         CLEAR     51  46  83 CALM      30.29R
HANFORD        CLEAR     45  44  97 CALM      30.30R FOG
PORTERVILLE    CLEAR     51  43  74 E5        30.29R
BAKERSFIELD    CLEAR     56  43  61 SE3       30.28R
$$
CAZ011-012-071-231600-
NORTHERN MOUNTAINS

CITY           SKY/WX    TMP DP  RH WIND       PRES   REMARKS
YREKA          FOG       40  40 100 CALM      30.56R VSB<1/4
MOUNT SHASTA   CLEAR     46  44  93 CALM      30.54R
ALTURAS        FOG       33  33 100 CALM      30.58R VSB 1/4
$$
CAZ011-012-071-231600-
SIERRA NEVADA MTNS

CITY           SKY/WX    TMP DP  RH WIND       PRES   REMARKS
BLUE CANYON    CLEAR     62  33  33 NE10G18   30.48R
TRUCKEE        CLEAR     30  28  93 CALM      30.61R
TAHOE VLY ARPT CLEAR     30  27  88 CALM      30.60R
MAMMOTH LAKES  FAIR      36  25  63 N5        30.64S WCI  32
$$




USA.gov is the U.S. government's official web portal to all federal, state and local government web resources and services.